Weather History for Bangkok (Don Mueang), Thailand

Change the Weather History Date:

Monday, November 5, 2012

  Actual Average Record
Temperature  
Mean Temperature 89 °F -  
Max Temperature 96 °F 88 °F 96 °F (2012)
Min Temperature 82 °F 74 °F 66 °F (2000)
Cooling Degree Days 24    
Growing Degree Days 39 (Base 50)    
Moisture  
Dew Point 75 °F    
Average Humidity 65    
Maximum Humidity 84    
Minimum Humidity 36    
Precipitation  
Precipitation 0.00 in 0.04 in - ()
Sea Level Pressure  
Sea Level Pressure 29.80 in    
Wind  
Wind Speed 2 mph ()    
Max Wind Speed 7 mph    
Max Gust Speed -    
Visibility 5.0 miles    
Events      
Averages and records for this station are not official NWS values.
T = Trace of Precipitation, MM = Missing Value Source: Averaged Metar Reports

Daily Weather History Graph

Daily Weather History Graph

Search for Another Location

Airport:

Trip Planner

Search our weather history database for the weather conditions in past years. The results will help you decide how hot, cold, wet, or windy it might be!

Date:

Astronomy

Nov. 05, 2012 Rise Set
Actual Time 6:13 AM ICT 5:48 PM ICT
Civil Twilight 5:51 AM ICT 6:10 PM ICT
Nautical Twilight 5:25 AM ICT 6:36 PM ICT
Astronomical Twilight 5:00 AM ICT 7:01 PM ICT
Moon 10:57 PM ICT (11/5) 11:08 AM ICT (11/5)
Length of Visible Light 12h 19m
Length of Day
11h 34m
Waning Gibbous, 67% of the Moon is Illuminated
Nov 5
Waning Gibbous
Nov 7
Last Quarter
Nov 14
New
Nov 20
First Quarter
Nov 28
Full

Hourly Weather History & Observations

Time (ICT) Temp. Heat Index Dew Point Humidity Pressure Visibility Wind Dir Wind Speed Gust Speed Precip Events Conditions
12:00 AM 86.0 °F 95.1 °F 75.2 °F 70% 29.83 in 5.0 mi Calm Calm - N/A   Scattered Clouds
12:30 AM 86.0 °F 95.1 °F 75.2 °F 70% 29.83 in 5.0 mi Calm Calm - N/A   Scattered Clouds
1:00 AM 86 °F - 75 °F 62% 29.84 in 5 mi Calm Calm - -   Mist
1:00 AM 86.0 °F 95.1 °F 75.2 °F 70% 29.83 in 5.0 mi Calm Calm - N/A   Scattered Clouds
1:30 AM 84.2 °F 90.9 °F 73.4 °F 70% 29.83 in 5.0 mi Calm Calm - N/A   Scattered Clouds
2:00 AM 82.4 °F 88.2 °F 73.4 °F 74% 29.83 in 5.0 mi Calm Calm - N/A   Scattered Clouds
2:30 AM 82.4 °F 89.5 °F 75.2 °F 79% 29.83 in 5.0 mi Calm Calm - N/A   Scattered Clouds
3:00 AM 82.4 °F 89.5 °F 75.2 °F 79% 29.80 in 5.0 mi Calm Calm - N/A   Scattered Clouds
3:30 AM 84.2 °F 92.3 °F 75.2 °F 74% 29.77 in 4.3 mi Calm Calm - N/A   Scattered Clouds
4:00 AM 82.4 °F 89.5 °F 75.2 °F 79% 29.77 in 3.7 mi Calm Calm - N/A   Scattered Clouds
4:30 AM 82.4 °F 89.5 °F 75.2 °F 79% 29.77 in 3.7 mi Calm Calm - N/A   Scattered Clouds
5:00 AM 82.4 °F 90.9 °F 77.0 °F 84% 29.77 in 3.1 mi Calm Calm - N/A   Scattered Clouds
5:30 AM 82.4 °F 90.9 °F 77.0 °F 84% 29.80 in 3.1 mi Calm Calm - N/A   Scattered Clouds
6:00 AM 82.4 °F 90.9 °F 77.0 °F 84% 29.80 in 2.5 mi Calm Calm - N/A   Scattered Clouds
6:30 AM 82.4 °F 90.9 °F 77.0 °F 84% 29.83 in 1.9 mi Calm Calm - N/A   Scattered Clouds
7:00 AM 83 °F - 77 °F 78% 29.83 in 2 mi Calm Calm - -   Mist
7:00 AM 82.4 °F 90.9 °F 77.0 °F 84% 29.83 in 2.5 mi Calm Calm - N/A   Scattered Clouds
7:30 AM 82.4 °F 90.9 °F 77.0 °F 84% 29.83 in 2.5 mi East 3.5 mph - N/A   Scattered Clouds
8:00 AM 84.2 °F 94.1 °F 77.0 °F 79% 29.83 in 3.1 mi East 3.5 mph - N/A   Scattered Clouds
8:30 AM 87.8 °F 99.7 °F 77.0 °F 70% 29.86 in 3.7 mi East 3.5 mph - N/A   Scattered Clouds
9:00 AM 86.0 °F 96.9 °F 77.0 °F 74% 29.86 in 4.3 mi ESE 3.5 mph - N/A   Scattered Clouds
9:30 AM 87.8 °F 97.6 °F 75.2 °F 66% 29.86 in 5.0 mi ESE 4.6 mph - N/A   Scattered Clouds
10:00 AM 89.6 °F 102.2 °F 77.0 °F 66% 29.86 in 5.6 mi NNE 4.6 mph - N/A   Scattered Clouds
10:30 AM 91.4 °F 105.1 °F 77.0 °F 63% 29.86 in 6.2 mi NNE 6.9 mph - N/A   Scattered Clouds
11:00 AM 91.4 °F 105.1 °F 77.0 °F 63% 29.83 in 6.2 mi ENE 4.6 mph - N/A   Scattered Clouds
12:00 PM 91.4 °F 102.5 °F 75.2 °F 59% 29.83 in 6.2 mi ESE 5.8 mph - N/A   Scattered Clouds
12:30 PM 91.4 °F 102.5 °F 75.2 °F 59% 29.80 in 6.2 mi SSE 5.8 mph - N/A   Scattered Clouds
1:00 PM 96 °F - 72 °F 36% 29.81 in 6 mi SSE 5.8 mph - -   Scattered Clouds
1:00 PM 93.2 °F 102.4 °F 73.4 °F 52% 29.80 in 6.2 mi SSE 5.8 mph - N/A   Scattered Clouds
1:30 PM 95.0 °F 103.2 °F 71.6 °F 47% 29.77 in 6.2 mi South 4.6 mph - N/A   Scattered Clouds
2:00 PM 95.0 °F 103.2 °F 71.6 °F 47% 29.77 in 6.2 mi SSE 6.9 mph - N/A   Scattered Clouds
2:30 PM 95.0 °F 103.2 °F 71.6 °F 47% 29.74 in 6.2 mi SSE 6.9 mph - N/A   Scattered Clouds
3:00 PM 95.0 °F 103.2 °F 71.6 °F 47% 29.74 in 6.2 mi SSE 5.8 mph - N/A   Scattered Clouds
3:30 PM 95.0 °F 103.2 °F 71.6 °F 47% 29.74 in 6.2 mi SSE 5.8 mph - N/A   Scattered Clouds
4:00 PM 95.0 °F 103.2 °F 71.6 °F 47% 29.74 in 6.2 mi SSE 5.8 mph - N/A   Scattered Clouds
4:30 PM 95.0 °F 103.2 °F 71.6 °F 47% 29.74 in 6.2 mi ESE 5.8 mph - N/A   Scattered Clouds
5:00 PM 93.2 °F 100.5 °F 71.6 °F 49% 29.74 in 6.2 mi ESE 3.5 mph - N/A   Scattered Clouds
5:30 PM 93.2 °F 100.5 °F 71.6 °F 49% 29.74 in 6.2 mi West 6.9 mph - N/A   Scattered Clouds
6:00 PM 91.4 °F 98.4 °F 71.6 °F 52% 29.74 in 6.2 mi West 4.6 mph - N/A   Scattered Clouds
6:30 PM 91.4 °F 98.4 °F 71.6 °F 52% 29.77 in 6.2 mi West 3.5 mph - N/A   Scattered Clouds
7:00 PM 90 °F - 75 °F 54% 29.79 in 6 mi West 3.5 mph - -   Haze
7:00 PM 89.6 °F 99.8 °F 75.2 °F 62% 29.77 in 5.6 mi West 3.5 mph - N/A   Scattered Clouds
7:30 PM 89.6 °F 99.8 °F 75.2 °F 62% 29.80 in 5.0 mi West 4.6 mph - N/A   Scattered Clouds
8:00 PM 89.6 °F 99.8 °F 75.2 °F 62% 29.80 in 5.0 mi West 3.5 mph - N/A   Scattered Clouds
8:30 PM 87.8 °F 97.6 °F 75.2 °F 66% 29.83 in 5.0 mi WSW 3.5 mph - N/A   Scattered Clouds
9:00 PM 87.8 °F 97.6 °F 75.2 °F 66% 29.83 in 5.0 mi West 3.5 mph - N/A   Scattered Clouds
9:30 PM 87.8 °F 97.6 °F 75.2 °F 66% 29.83 in 5.0 mi WSW 3.5 mph - N/A   Scattered Clouds
10:00 PM 87.8 °F 95.6 °F 73.4 °F 62% 29.83 in 5.0 mi WSW 5.8 mph - N/A   Mostly Cloudy
10:30 PM 87.8 °F 95.6 °F 73.4 °F 62% 29.83 in 5.0 mi West 3.5 mph - N/A   Mostly Cloudy
11:00 PM 86.0 °F 93.4 °F 73.4 °F 66% 29.83 in 5.0 mi West 3.5 mph - N/A   Mostly Cloudy
11:30 PM 86.0 °F 93.4 °F 73.4 °F 66% 29.83 in 5.0 mi WSW 3.5 mph - N/A   Mostly Cloudy